Wetterdaten: Mittwoch, 23.12.2015
Datum Zeit Auen-Temp. Temp gefhlt Luftfeuchte Luftdruck Regen Wind Richtung Richtung Taupunkt Windben
23.12.2015 00:00 1,0 C 0,8 C 79 % 1029,9 hPa 0,0 mm 0,0 km/h (0 Bft) SO 135 -2,2 C 0,0 km/h (0 Bft)
23.12.2015 00:05 0,5 C 0,4 C 79 % 1029,9 hPa 0,0 mm 0,0 km/h (0 Bft) O-NO 67 -2,7 C 0,0 km/h (0 Bft)
23.12.2015 00:10 0,7 C 0,6 C 77 % 1029,9 hPa 0,0 mm 0,8 km/h (0 Bft) S-SO 157 -2,9 C 5,2 km/h (1 Bft)
23.12.2015 00:15 1,1 C 1,0 C 77 % 1029,8 hPa 0,0 mm 1,3 km/h (1 Bft) S-SW 202 -2,5 C 0,0 km/h (0 Bft)
23.12.2015 00:20 0,8 C 0,6 C 78 % 1029,8 hPa 0,0 mm 1,6 km/h (1 Bft) O-NO 67 -2,6 C 0,0 km/h (0 Bft)
23.12.2015 00:25 0,6 C 0,4 C 78 % 1029,8 hPa 0,0 mm 0,8 km/h (0 Bft) O-NO 67 -2,8 C 0,0 km/h (0 Bft)
23.12.2015 00:30 0,6 C 0,3 C 79 % 1029,8 hPa 0,0 mm 0,0 km/h (0 Bft) S-SO 157 -2,6 C 0,0 km/h (0 Bft)
23.12.2015 00:35 0,3 C 0,1 C 78 % 1029,7 hPa 0,0 mm 0,0 km/h (0 Bft) O 90 -3,1 C 0,0 km/h (0 Bft)
23.12.2015 00:40 0,0 C -0,2 C 78 % 1029,7 hPa 0,0 mm 0,0 km/h (0 Bft) O 90 -3,4 C 0,0 km/h (0 Bft)
23.12.2015 00:45 0,1 C -0,2 C 79 % 1029,7 hPa 0,0 mm 0,0 km/h (0 Bft) O 90 -3,1 C 0,0 km/h (0 Bft)
23.12.2015 00:50 0,3 C 0,0 C 79 % 1029,7 hPa 0,0 mm 0,0 km/h (0 Bft) O 90 -2,9 C 0,0 km/h (0 Bft)
23.12.2015 00:55 -0,1 C -0,3 C 79 % 1029,5 hPa 0,0 mm 0,0 km/h (0 Bft) O 90 -3,3 C 0,0 km/h (0 Bft)
23.12.2015 01:00 0,0 C -0,3 C 79 % 1029,5 hPa 0,0 mm 0,0 km/h (0 Bft) O 90 -3,2 C 0,0 km/h (0 Bft)
23.12.2015 01:05 0,0 C -0,3 C 79 % 1029,5 hPa 0,0 mm 0,0 km/h (0 Bft) O 90 -3,2 C 0,0 km/h (0 Bft)
23.12.2015 01:10 -0,1 C -0,5 C 79 % 1029,5 hPa 0,0 mm 0,0 km/h (0 Bft) SO 135 -3,3 C 0,0 km/h (0 Bft)
23.12.2015 01:15 0,1 C -0,3 C 79 % 1029,4 hPa 0,0 mm 0,0 km/h (0 Bft) O-NO 67 -3,1 C 0,0 km/h (0 Bft)
23.12.2015 01:19 0,0 C -0,4 C 79 % 1029,4 hPa 0,0 mm 0,0 km/h (0 Bft) O 90 -3,2 C 0,0 km/h (0 Bft)
23.12.2015 01:20 0,0 C -0,4 C 79 % 1029,4 hPa 0,0 mm 0,0 km/h (0 Bft) O 90 -3,2 C 0,0 km/h (0 Bft)
23.12.2015 01:25 0,0 C -0,4 C 80 % 1029,4 hPa 0,0 mm 0,0 km/h (0 Bft) O-NO 67 -3,0 C 0,0 km/h (0 Bft)
23.12.2015 01:30 0,2 C -0,3 C 80 % 1029,4 hPa 0,0 mm 0,0 km/h (0 Bft) SO 135 -2,8 C 0,0 km/h (0 Bft)
23.12.2015 01:35 0,3 C -0,2 C 80 % 1029,4 hPa 0,0 mm 0,0 km/h (0 Bft) O-NO 67 -2,7 C 0,0 km/h (0 Bft)
23.12.2015 01:40 -0,3 C -0,6 C 80 % 1029,4 hPa 0,0 mm 0,0 km/h (0 Bft) O-NO 67 -3,3 C 0,0 km/h (0 Bft)
23.12.2015 01:45 -0,3 C -0,7 C 79 % 1029,4 hPa 0,0 mm 0,0 km/h (0 Bft) O-NO 67 -3,5 C 0,0 km/h (0 Bft)
23.12.2015 01:50 -0,5 C -0,8 C 79 % 1029,4 hPa 0,0 mm 0,0 km/h (0 Bft) O-NO 67 -3,7 C 0,0 km/h (0 Bft)
23.12.2015 01:55 -0,6 C -0,9 C 79 % 1029,3 hPa 0,0 mm 0,0 km/h (0 Bft) O-NO 67 -3,8 C 0,0 km/h (0 Bft)
23.12.2015 02:00 -0,3 C -0,8 C 80 % 1029,3 hPa 0,0 mm 0,0 km/h (0 Bft) O-NO 67 -3,3 C 0,0 km/h (0 Bft)
23.12.2015 02:05 -0,5 C -0,9 C 80 % 1029,3 hPa 0,0 mm 0,0 km/h (0 Bft) O-NO 67 -3,5 C 0,0 km/h (0 Bft)
23.12.2015 02:10 -0,6 C -1,0 C 80 % 1029,3 hPa 0,0 mm 0,0 km/h (0 Bft) SO 135 -3,6 C 0,0 km/h (0 Bft)
23.12.2015 02:15 -0,1 C -0,6 C 81 % 1029,3 hPa 0,0 mm 0,0 km/h (0 Bft) O-NO 67 -3,0 C 0,0 km/h (0 Bft)
23.12.2015 02:20 -0,5 C -0,9 C 80 % 1029,3 hPa 0,0 mm 0,0 km/h (0 Bft) O-NO 67 -3,5 C 0,0 km/h (0 Bft)
23.12.2015 02:25 -0,5 C -0,9 C 81 % 1029,3 hPa 0,0 mm 0,0 km/h (0 Bft) O-NO 67 -3,3 C 0,0 km/h (0 Bft)
23.12.2015 02:30 -0,5 C -0,8 C 81 % 1029,3 hPa 0,0 mm 0,3 km/h (0 Bft) N-NO 22 -3,3 C 0,0 km/h (0 Bft)
23.12.2015 02:35 -0,1 C -0,5 C 81 % 1029,3 hPa 0,0 mm 0,3 km/h (0 Bft) O-SO 112 -3,0 C 0,0 km/h (0 Bft)
23.12.2015 02:40 -0,6 C -0,9 C 81 % 1029,3 hPa 0,0 mm 0,0 km/h (0 Bft) O-NO 67 -3,4 C 0,0 km/h (0 Bft)
23.12.2015 02:45 -0,3 C -0,7 C 81 % 1029,3 hPa 0,0 mm 0,0 km/h (0 Bft) O-NO 67 -3,2 C 0,0 km/h (0 Bft)
23.12.2015 02:50 0,0 C -0,4 C 82 % 1029,3 hPa 0,0 mm 0,3 km/h (0 Bft) O-NO 67 -2,7 C 0,0 km/h (0 Bft)
23.12.2015 02:56 0,1 C -0,3 C 82 % 1029,2 hPa 0,0 mm 0,3 km/h (0 Bft) S 180 -2,6 C 0,0 km/h (0 Bft)
23.12.2015 03:00 -0,7 C -0,9 C 81 % 1029,2 hPa 0,0 mm 0,0 km/h (0 Bft) O 90 -3,5 C 0,0 km/h (0 Bft)
23.12.2015 03:05 -0,9 C -1,1 C 81 % 1029,2 hPa 0,0 mm 0,0 km/h (0 Bft) O-SO 112 -3,7 C 0,0 km/h (0 Bft)
23.12.2015 03:10 0,0 C 0,1 C 78 % 1029,2 hPa 0,0 mm 0,0 km/h (0 Bft) S-SO 157 -3,4 C 2,6 km/h (1 Bft)
23.12.2015 03:15 0,9 C 0,6 C 78 % 1029,2 hPa 0,0 mm 0,8 km/h (0 Bft) S-SO 157 -2,5 C 3,1 km/h (1 Bft)
23.12.2015 03:20 -0,2 C -0,3 C 79 % 1029,2 hPa 0,0 mm 0,8 km/h (0 Bft) SO 135 -3,4 C 0,0 km/h (0 Bft)
23.12.2015 03:25 -0,5 C -0,5 C 79 % 1029,2 hPa 0,0 mm 0,5 km/h (0 Bft) O-SO 112 -3,7 C 0,0 km/h (0 Bft)
23.12.2015 03:30 0,1 C -0,1 C 78 % 1029,2 hPa 0,0 mm 1,0 km/h (0 Bft) O-NO 67 -3,3 C 5,7 km/h (1 Bft)
23.12.2015 03:35 0,1 C -0,1 C 80 % 1029,2 hPa 0,0 mm 1,3 km/h (1 Bft) SO 135 -2,9 C 3,1 km/h (1 Bft)
23.12.2015 03:40 0,3 C 0,2 C 78 % 1029,2 hPa 0,0 mm 0,8 km/h (0 Bft) SO 135 -3,1 C 0,0 km/h (0 Bft)
23.12.2015 03:45 0,3 C 0,2 C 78 % 1029,2 hPa 0,0 mm 1,0 km/h (0 Bft) S-SO 157 -3,1 C 3,6 km/h (1 Bft)
23.12.2015 03:50 0,6 C 0,5 C 78 % 1029,2 hPa 0,0 mm 1,6 km/h (1 Bft) O-NO 67 -2,8 C 6,2 km/h (2 Bft)
23.12.2015 03:55 0,3 C 0,1 C 79 % 1029,5 hPa 0,0 mm 0,8 km/h (0 Bft) O 90 -2,9 C 0,0 km/h (0 Bft)
23.12.2015 04:00 0,3 C 0,1 C 77 % 1029,5 hPa 0,0 mm 0,0 km/h (0 Bft) O-NO 67 -3,2 C 0,0 km/h (0 Bft)
23.12.2015 04:05 0,3 C 0,0 C 79 % 1029,5 hPa 0,0 mm 0,0 km/h (0 Bft) SO 135 -2,9 C 0,0 km/h (0 Bft)
23.12.2015 04:10 0,5 C 0,1 C 79 % 1029,5 hPa 0,0 mm 0,0 km/h (0 Bft) SO 135 -2,7 C 0,0 km/h (0 Bft)
23.12.2015 04:15 0,1 C -0,2 C 79 % 1029,5 hPa 0,0 mm 0,0 km/h (0 Bft) SO 135 -3,1 C 0,0 km/h (0 Bft)
23.12.2015 04:20 0,4 C 0,1 C 77 % 1029,5 hPa 0,0 mm 0,0 km/h (0 Bft) O-SO 112 -3,1 C 0,0 km/h (0 Bft)
23.12.2015 04:25 0,8 C 0,5 C 77 % 1029,5 hPa 0,0 mm 0,0 km/h (0 Bft) S-SO 157 -2,8 C 3,1 km/h (1 Bft)
23.12.2015 04:30 0,8 C 0,3 C 79 % 1029,5 hPa 0,0 mm 0,3 km/h (0 Bft) N-NW 337 -2,4 C 0,0 km/h (0 Bft)
23.12.2015 04:35 0,1 C -0,2 C 78 % 1029,7 hPa 0,0 mm 0,3 km/h (0 Bft) S 180 -3,3 C 0,0 km/h (0 Bft)
23.12.2015 04:40 -0,2 C -0,5 C 78 % 1029,7 hPa 0,0 mm 0,0 km/h (0 Bft) W-SW 247 -3,6 C 0,0 km/h (0 Bft)
23.12.2015 04:45 -0,1 C -0,4 C 78 % 1029,7 hPa 0,0 mm 0,3 km/h (0 Bft) S-SO 157 -3,5 C 3,1 km/h (1 Bft)
23.12.2015 04:50 -0,1 C -0,4 C 79 % 1029,7 hPa 0,0 mm 1,0 km/h (0 Bft) O-NO 67 -3,3 C 0,0 km/h (0 Bft)
23.12.2015 04:55 0,0 C -0,2 C 77 % 1029,7 hPa 0,0 mm 1,0 km/h (0 Bft) O-NO 67 -3,5 C 0,0 km/h (0 Bft)
23.12.2015 05:00 -0,1 C -0,4 C 79 % 1029,7 hPa 0,0 mm 0,5 km/h (0 Bft) SO 135 -3,3 C 3,1 km/h (1 Bft)
23.12.2015 05:05 0,6 C 0,3 C 78 % 1029,7 hPa 0,0 mm 1,3 km/h (1 Bft) SO 135 -2,8 C 4,7 km/h (1 Bft)
23.12.2015 05:10 0,7 C 0,5 C 77 % 1029,7 hPa 0,0 mm 2,1 km/h (1 Bft) O-SO 112 -2,9 C 0,0 km/h (0 Bft)
23.12.2015 05:15 0,3 C 0,1 C 78 % 1029,8 hPa 0,0 mm 1,0 km/h (0 Bft) O-SO 112 -3,1 C 0,0 km/h (0 Bft)
23.12.2015 05:20 0,1 C -0,1 C 78 % 1029,8 hPa 0,0 mm 0,8 km/h (0 Bft) O-NO 67 -3,3 C 7,0 km/h (2 Bft)
23.12.2015 05:25 0,2 C 0,4 C 77 % 1029,8 hPa 0,0 mm 2,6 km/h (1 Bft) SW 225 -3,3 C 14,0 km/h (3 Bft)
23.12.2015 05:30 0,2 C 0,4 C 78 % 1029,8 hPa 0,0 mm 3,1 km/h (1 Bft) O-NO 67 -3,2 C 0,0 km/h (0 Bft)
23.12.2015 05:35 0,0 C -0,1 C 78 % 1029,9 hPa 0,0 mm 2,1 km/h (1 Bft) NO 45 -3,4 C 0,0 km/h (0 Bft)
23.12.2015 05:40 0,0 C -0,2 C 78 % 1029,9 hPa 0,0 mm 0,3 km/h (0 Bft) O-NO 67 -3,4 C 0,0 km/h (0 Bft)
23.12.2015 05:45 -0,3 C -0,4 C 78 % 1029,9 hPa 0,0 mm 0,3 km/h (0 Bft) NO 45 -3,7 C 0,0 km/h (0 Bft)
23.12.2015 05:50 0,2 C 0,0 C 77 % 1029,9 hPa 0,0 mm 0,3 km/h (0 Bft) SO 135 -3,3 C 0,0 km/h (0 Bft)
23.12.2015 05:55 0,6 C 0,8 C 77 % 1030,2 hPa 0,0 mm 2,6 km/h (1 Bft) W-SW 247 -3,0 C 8,3 km/h (2 Bft)
23.12.2015 06:00 3,2 C 2,7 C 78 % 1030,2 hPa 0,0 mm 6,0 km/h (2 Bft) W-SW 247 -0,3 C 5,7 km/h (1 Bft)
23.12.2015 06:05 2,8 C 2,7 C 78 % 1030,2 hPa 0,0 mm 6,2 km/h (2 Bft) SW 225 -0,6 C 4,4 km/h (1 Bft)
23.12.2015 06:10 2,8 C 3,6 C 77 % 1030,2 hPa 0,0 mm 4,7 km/h (1 Bft) W 270 -0,8 C 0,0 km/h (0 Bft)
23.12.2015 06:15 3,6 C 3,7 C 76 % 1030,7 hPa 0,0 mm 4,7 km/h (1 Bft) W-SW 247 -0,2 C 3,6 km/h (1 Bft)
23.12.2015 06:20 4,1 C 4,0 C 74 % 1030,7 hPa 0,0 mm 5,4 km/h (1 Bft) S-SW 202 -0,1 C 6,5 km/h (2 Bft)
23.12.2015 06:25 4,0 C 4,1 C 72 % 1030,7 hPa 0,0 mm 4,9 km/h (1 Bft) NW 315 -0,6 C 7,0 km/h (2 Bft)
23.12.2015 06:30 4,2 C 4,2 C 71 % 1030,7 hPa 0,0 mm 3,9 km/h (1 Bft) SW 225 -0,6 C 6,0 km/h (2 Bft)
23.12.2015 06:35 4,3 C 4,3 C 71 % 1031,0 hPa 0,0 mm 4,4 km/h (1 Bft) W-SW 247 -0,5 C 6,7 km/h (2 Bft)
23.12.2015 06:40 4,4 C 4,3 C 69 % 1031,0 hPa 0,0 mm 4,1 km/h (1 Bft) W-SW 247 -0,8 C 15,3 km/h (3 Bft)
23.12.2015 06:45 4,4 C 4,3 C 69 % 1031,0 hPa 0,0 mm 2,8 km/h (1 Bft) SW 225 -0,8 C 0,0 km/h (0 Bft)
23.12.2015 06:50 4,3 C 4,1 C 69 % 1031,0 hPa 0,0 mm 1,3 km/h (1 Bft) S 180 -0,9 C 2,6 km/h (1 Bft)
23.12.2015 06:55 4,8 C 4,5 C 68 % 1031,0 hPa 0,0 mm 1,3 km/h (1 Bft) S-SW 202 -0,6 C 4,9 km/h (1 Bft)
23.12.2015 07:00 4,9 C 4,6 C 67 % 1031,0 hPa 0,0 mm 3,6 km/h (1 Bft) SW 225 -0,7 C 6,5 km/h (2 Bft)
23.12.2015 07:05 4,3 C 4,2 C 67 % 1031,0 hPa 0,0 mm 4,4 km/h (1 Bft) W-NW 292 -1,3 C 4,4 km/h (1 Bft)
23.12.2015 07:10 3,1 C 3,7 C 67 % 1031,0 hPa 0,0 mm 3,4 km/h (1 Bft) S 180 -2,4 C 0,0 km/h (0 Bft)
23.12.2015 07:15 3,0 C 3,7 C 68 % 1031,2 hPa 0,0 mm 2,8 km/h (1 Bft) SW 225 -2,3 C 2,6 km/h (1 Bft)
23.12.2015 07:20 3,6 C 3,7 C 70 % 1031,2 hPa 0,0 mm 3,1 km/h (1 Bft) S-SW 202 -1,3 C 6,0 km/h (2 Bft)
23.12.2015 07:25 4,0 C 3,9 C 69 % 1031,2 hPa 0,0 mm 4,1 km/h (1 Bft) W-SW 247 -1,2 C 4,4 km/h (1 Bft)
23.12.2015 07:30 3,8 C 3,7 C 70 % 1031,2 hPa 0,0 mm 6,0 km/h (2 Bft) SW 225 -1,2 C 11,1 km/h (2 Bft)
23.12.2015 07:35 4,8 C 4,4 C 69 % 1031,1 hPa 0,0 mm 6,7 km/h (2 Bft) W-SW 247 -0,4 C 9,6 km/h (2 Bft)
23.12.2015 07:40 3,9 C 3,8 C 67 % 1031,1 hPa 0,0 mm 6,7 km/h (2 Bft) SW 225 -1,7 C 4,4 km/h (1 Bft)
23.12.2015 07:45 3,9 C 3,9 C 68 % 1031,1 hPa 0,0 mm 5,7 km/h (1 Bft) O-SO 112 -1,5 C 7,3 km/h (2 Bft)
23.12.2015 07:50 4,0 C 4,0 C 67 % 1031,1 hPa 0,0 mm 4,4 km/h (1 Bft) O-SO 112 -1,6 C 0,0 km/h (0 Bft)
23.12.2015 07:55 3,2 C 3,7 C 67 % 1031,3 hPa 0,0 mm 2,8 km/h (1 Bft) W-NW 292 -2,3 C 0,0 km/h (0 Bft)
23.12.2015 08:00 1,4 C 2,1 C 67 % 1031,3 hPa 0,0 mm 0,3 km/h (0 Bft) SO 135 -4,0 C 0,0 km/h (0 Bft)
23.12.2015 08:05 1,5 C 1,4 C 70 % 1031,3 hPa 0,0 mm 0,3 km/h (0 Bft) O-SO 112 -3,4 C 0,0 km/h (0 Bft)
23.12.2015 08:10 1,1 C 0,9 C 70 % 1031,3 hPa 0,0 mm 0,0 km/h (0 Bft) N 360 -3,7 C 0,0 km/h (0 Bft)
23.12.2015 08:15 0,7 C 0,5 C 71 % 1031,5 hPa 0,0 mm 0,0 km/h (0 Bft) SO 135 -3,9 C 0,0 km/h (0 Bft)
23.12.2015 08:20 0,4 C 0,1 C 72 % 1031,5 hPa 0,0 mm 0,0 km/h (0 Bft) N-NO 22 -4,0 C 0,0 km/h (0 Bft)
23.12.2015 08:25 0,3 C 0,0 C 73 % 1031,5 hPa 0,0 mm 0,0 km/h (0 Bft) N-NW 337 -4,0 C 0,0 km/h (0 Bft)
23.12.2015 08:30 0,1 C -0,3 C 73 % 1031,5 hPa 0,0 mm 0,0 km/h (0 Bft) O 90 -4,2 C 0,0 km/h (0 Bft)
23.12.2015 08:35 -0,1 C -0,5 C 74 % 1031,7 hPa 0,0 mm 0,3 km/h (0 Bft) O-NO 67 -4,2 C 0,0 km/h (0 Bft)
23.12.2015 08:40 0,1 C -0,3 C 75 % 1031,7 hPa 0,0 mm 0,0 km/h (0 Bft) O-SO 112 -3,8 C 0,0 km/h (0 Bft)
23.12.2015 08:45 0,3 C -0,1 C 75 % 1031,7 hPa 0,0 mm 0,3 km/h (0 Bft) SO 135 -3,6 C 2,6 km/h (1 Bft)
23.12.2015 08:50 0,7 C 0,8 C 74 % 1031,7 hPa 0,0 mm 2,8 km/h (1 Bft) S 180 -3,4 C 14,8 km/h (3 Bft)
23.12.2015 08:55 2,3 C 2,2 C 75 % 1031,5 hPa 0,0 mm 5,4 km/h (1 Bft) W-SW 247 -1,7 C 16,8 km/h (3 Bft)
23.12.2015 09:00 2,5 C 2,5 C 74 % 1031,5 hPa 0,0 mm 6,5 km/h (2 Bft) NW 315 -1,7 C 5,7 km/h (1 Bft)
23.12.2015 09:05 2,4 C 2,7 C 73 % 1031,5 hPa 0,0 mm 6,0 km/h (2 Bft) W-SW 247 -1,9 C 8,3 km/h (2 Bft)
23.12.2015 09:10 4,0 C 4,1 C 72 % 1031,5 hPa 0,0 mm 4,1 km/h (1 Bft) SW 225 -0,6 C 2,8 km/h (1 Bft)
23.12.2015 09:15 4,8 C 4,7 C 69 % 1031,7 hPa 0,0 mm 4,1 km/h (1 Bft) S 180 -0,4 C 4,1 km/h (1 Bft)
23.12.2015 09:20 4,7 C 4,8 C 68 % 1031,7 hPa 0,0 mm 2,1 km/h (1 Bft) S-SO 157 -0,7 C 0,0 km/h (0 Bft)
23.12.2015 09:25 4,5 C 4,8 C 67 % 1031,7 hPa 0,0 mm 1,0 km/h (0 Bft) SO 135 -1,1 C 0,0 km/h (0 Bft)
23.12.2015 09:30 3,9 C 4,5 C 68 % 1031,7 hPa 0,0 mm 0,5 km/h (0 Bft) NO 45 -1,5 C 0,0 km/h (0 Bft)
23.12.2015 09:35 3,0 C 4,3 C 67 % 1031,6 hPa 0,0 mm 0,0 km/h (0 Bft) O-SO 112 -2,5 C 0,0 km/h (0 Bft)
23.12.2015 09:40 2,5 C 3,6 C 69 % 1031,6 hPa 0,0 mm 0,0 km/h (0 Bft) N-NW 337 -2,6 C 0,0 km/h (0 Bft)
23.12.2015 09:45 2,6 C 3,2 C 69 % 1031,6 hPa 0,0 mm 0,0 km/h (0 Bft) O-SO 112 -2,5 C 0,0 km/h (0 Bft)
23.12.2015 09:50 2,5 C 3,0 C 70 % 1031,6 hPa 0,0 mm 0,0 km/h (0 Bft) W-SW 247 -2,4 C 0,0 km/h (0 Bft)
23.12.2015 09:55 2,6 C 2,8 C 71 % 1031,8 hPa 0,0 mm 0,0 km/h (0 Bft) NO 45 -2,1 C 0,0 km/h (0 Bft)
23.12.2015 10:00 2,9 C 2,9 C 71 % 1031,8 hPa 0,0 mm 0,0 km/h (0 Bft) S-SO 157 -1,8 C 0,0 km/h (0 Bft)
23.12.2015 10:05 3,3 C 3,3 C 69 % 1031,8 hPa 0,0 mm 0,0 km/h (0 Bft) SO 135 -1,8 C 0,0 km/h (0 Bft)
23.12.2015 10:10 3,3 C 3,3 C 69 % 1031,8 hPa 0,0 mm 0,0 km/h (0 Bft) N 0 -1,8 C 0,0 km/h (0 Bft)
23.12.2015 10:15 3,7 C 3,6 C 70 % 1032,2 hPa 0,0 mm 0,0 km/h (0 Bft) N 0 -1,3 C 0,0 km/h (0 Bft)
23.12.2015 10:20 3,3 C 3,6 C 70 % 1032,2 hPa 0,0 mm 0,0 km/h (0 Bft) N-NW 337 -1,6 C 0,0 km/h (0 Bft)
23.12.2015 10:25 4,2 C 4,1 C 70 % 1032,2 hPa 0,0 mm 0,0 km/h (0 Bft) O-NO 67 -0,8 C 3,1 km/h (1 Bft)
23.12.2015 10:30 5,6 C 5,3 C 69 % 1032,2 hPa 0,0 mm 1,0 km/h (0 Bft) W-SW 247 0,4 C 8,5 km/h (2 Bft)
23.12.2015 10:35 5,0 C 5,3 C 68 % 1032,2 hPa 0,0 mm 1,6 km/h (1 Bft) N-NO 22 -0,4 C 0,0 km/h (0 Bft)
23.12.2015 10:40 5,0 C 5,1 C 68 % 1032,2 hPa 0,0 mm 1,0 km/h (0 Bft) S 180 -0,4 C 0,0 km/h (0 Bft)
23.12.2015 10:45 5,5 C 5,4 C 67 % 1032,2 hPa 0,0 mm 0,0 km/h (0 Bft) W 270 -0,1 C 0,0 km/h (0 Bft)
23.12.2015 10:50 6,0 C 5,8 C 65 % 1032,2 hPa 0,0 mm 0,0 km/h (0 Bft) W-SW 247 -0,1 C 0,0 km/h (0 Bft)
23.12.2015 10:55 6,1 C 5,9 C 64 % 1032,6 hPa 0,0 mm 0,0 km/h (0 Bft) SW 225 -0,2 C 3,6 km/h (1 Bft)
23.12.2015 11:00 6,9 C 6,7 C 61 % 1032,6 hPa 0,0 mm 2,3 km/h (1 Bft) W-SW 247 -0,1 C 5,4 km/h (1 Bft)
23.12.2015 11:05 7,2 C 7,1 C 60 % 1032,6 hPa 0,0 mm 4,7 km/h (1 Bft) S 180 -0,0 C 12,9 km/h (3 Bft)
23.12.2015 11:10 7,3 C 7,3 C 59 % 1032,6 hPa 0,0 mm 6,7 km/h (2 Bft) W-SW 247 -0,2 C 17,6 km/h (3 Bft)
23.12.2015 11:15 7,2 C 7,3 C 59 % 1032,5 hPa 0,0 mm 6,2 km/h (2 Bft) W 270 -0,3 C 2,8 km/h (1 Bft)
23.12.2015 11:20 7,4 C 7,7 C 58 % 1032,5 hPa 0,0 mm 5,4 km/h (1 Bft) S 180 -0,3 C 6,5 km/h (2 Bft)
23.12.2015 11:25 7,6 C 7,6 C 58 % 1032,5 hPa 0,0 mm 6,5 km/h (2 Bft) W-SW 247 -0,1 C 11,7 km/h (2 Bft)
23.12.2015 11:30 7,4 C 8,0 C 58 % 1032,5 hPa 0,0 mm 5,2 km/h (1 Bft) W-NW 292 -0,3 C 4,1 km/h (1 Bft)
23.12.2015 11:35 7,2 C 8,0 C 58 % 1032,8 hPa 0,0 mm 4,9 km/h (1 Bft) W 270 -0,5 C 4,1 km/h (1 Bft)
23.12.2015 11:40 7,6 C 8,1 C 58 % 1032,8 hPa 0,0 mm 5,2 km/h (1 Bft) W-NW 292 -0,1 C 6,0 km/h (2 Bft)
23.12.2015 11:45 7,9 C 8,3 C 58 % 1032,8 hPa 0,0 mm 5,7 km/h (1 Bft) W 270 0,2 C 6,0 km/h (2 Bft)
23.12.2015 11:50 8,1 C 8,4 C 58 % 1032,8 hPa 0,0 mm 7,3 km/h (2 Bft) NW 315 0,3 C 17,1 km/h (3 Bft)
23.12.2015 11:55 8,7 C 8,5 C 58 % 1032,1 hPa 0,0 mm 9,3 km/h (2 Bft) W 270 0,9 C 15,5 km/h (3 Bft)
23.12.2015 12:00 8,8 C 8,7 C 57 % 1032,1 hPa 0,0 mm 10,4 km/h (2 Bft) NW 315 0,8 C 21,0 km/h (4 Bft)
23.12.2015 12:05 8,7 C 8,7 C 57 % 1032,1 hPa 0,0 mm 9,6 km/h (2 Bft) W-NW 292 0,7 C 10,6 km/h (2 Bft)
23.12.2015 12:10 8,8 C 8,9 C 57 % 1032,1 hPa 0,0 mm 8,3 km/h (2 Bft) SW 225 0,8 C 7,8 km/h (2 Bft)
23.12.2015 12:15 8,9 C 8,9 C 57 % 1032,0 hPa 0,0 mm 8,8 km/h (2 Bft) W-NW 292 0,9 C 18,1 km/h (3 Bft)
23.12.2015 12:20 8,8 C 9,1 C 57 % 1032,0 hPa 0,0 mm 8,3 km/h (2 Bft) W-SW 247 0,8 C 8,0 km/h (2 Bft)
23.12.2015 12:25 8,8 C 9,2 C 57 % 1032,0 hPa 0,0 mm 7,3 km/h (2 Bft) NW 315 0,8 C 10,6 km/h (2 Bft)
23.12.2015 12:30 9,2 C 9,2 C 57 % 1032,0 hPa 0,0 mm 8,3 km/h (2 Bft) W-NW 292 1,1 C 11,4 km/h (2 Bft)
23.12.2015 12:35 9,3 C 9,3 C 56 % 1031,9 hPa 0,0 mm 9,1 km/h (2 Bft) W-SW 247 1,0 C 6,0 km/h (2 Bft)
23.12.2015 12:40 9,2 C 9,6 C 56 % 1031,9 hPa 0,0 mm 8,3 km/h (2 Bft) W-NW 292 0,9 C 26,9 km/h (4 Bft)
23.12.2015 12:45 9,4 C 9,6 C 56 % 1031,9 hPa 0,0 mm 8,3 km/h (2 Bft) W 270 1,1 C 19,7 km/h (3 Bft)
23.12.2015 12:50 9,9 C 9,6 C 55 % 1031,9 hPa 0,0 mm 11,9 km/h (2 Bft) W-NW 292 1,3 C 27,4 km/h (4 Bft)
23.12.2015 12:55 9,9 C 9,8 C 55 % 1031,7 hPa 0,0 mm 13,5 km/h (3 Bft) W-NW 292 1,3 C 9,3 km/h (2 Bft)
23.12.2015 13:00 9,9 C 9,7 C 56 % 1031,7 hPa 0,0 mm 13,7 km/h (3 Bft) NW 315 1,5 C 23,6 km/h (4 Bft)
23.12.2015 13:05 10,1 C 9,9 C 55 % 1031,7 hPa 0,0 mm 14,0 km/h (3 Bft) W-SW 247 1,5 C 17,6 km/h (3 Bft)
23.12.2015 13:10 10,1 C 9,8 C 56 % 1031,7 hPa 0,0 mm 14,8 km/h (3 Bft) W 270 1,7 C 34,4 km/h (5 Bft)
23.12.2015 13:15 10,1 C 9,9 C 55 % 1031,6 hPa 0,0 mm 13,7 km/h (3 Bft) W 270 1,5 C 12,2 km/h (2 Bft)
23.12.2015 13:21 10,2 C 9,9 C 55 % 1031,6 hPa 0,0 mm 13,5 km/h (3 Bft) W-NW 292 1,6 C 12,9 km/h (3 Bft)
23.12.2015 13:25 10,2 C 9,9 C 56 % 1031,6 hPa 0,0 mm 12,9 km/h (3 Bft) W 270 1,8 C 15,5 km/h (3 Bft)
23.12.2015 13:30 10,2 C 10,1 C 55 % 1031,6 hPa 0,0 mm 12,4 km/h (3 Bft) NW 315 1,6 C 9,6 km/h (2 Bft)
23.12.2015 13:35 10,2 C 10,0 C 56 % 1031,5 hPa 0,0 mm 13,2 km/h (3 Bft) W 270 1,8 C 15,3 km/h (3 Bft)
23.12.2015 13:40 10,1 C 9,9 C 56 % 1031,5 hPa 0,0 mm 12,9 km/h (3 Bft) W 270 1,7 C 11,9 km/h (2 Bft)
23.12.2015 13:45 10,3 C 10,1 C 55 % 1031,5 hPa 0,0 mm 14,2 km/h (3 Bft) W 270 1,7 C 27,4 km/h (4 Bft)
23.12.2015 13:50 10,5 C 11,2 C 56 % 1031,5 hPa 0,0 mm 11,7 km/h (2 Bft) W 270 2,1 C 5,4 km/h (1 Bft)
23.12.2015 13:55 10,7 C 12,1 C 56 % 1031,3 hPa 0,0 mm 10,9 km/h (2 Bft) W 270 2,3 C 9,6 km/h (2 Bft)
23.12.2015 14:00 10,9 C 13,4 C 55 % 1031,3 hPa 0,0 mm 10,4 km/h (2 Bft) W-SW 247 2,2 C 7,3 km/h (2 Bft)
23.12.2015 14:05 10,8 C 13,8 C 55 % 1031,3 hPa 0,0 mm 10,6 km/h (2 Bft) NW 315 2,1 C 18,6 km/h (3 Bft)
23.12.2015 14:10 10,3 C 13,0 C 55 % 1031,3 hPa 0,0 mm 10,6 km/h (2 Bft) W-NW 292 1,7 C 15,0 km/h (3 Bft)
23.12.2015 14:15 10,5 C 12,7 C 55 % 1031,5 hPa 0,0 mm 13,2 km/h (3 Bft) NW 315 1,8 C 18,1 km/h (3 Bft)
23.12.2015 14:20 10,3 C 11,6 C 55 % 1031,5 hPa 0,0 mm 15,3 km/h (3 Bft) W-NW 292 1,7 C 21,0 km/h (4 Bft)
23.12.2015 14:25 10,3 C 10,8 C 55 % 1031,5 hPa 0,0 mm 14,2 km/h (3 Bft) W 270 1,7 C 10,4 km/h (2 Bft)
23.12.2015 14:30 9,9 C 10,7 C 55 % 1031,5 hPa 0,0 mm 10,6 km/h (2 Bft) W-SW 247 1,3 C 11,9 km/h (2 Bft)
23.12.2015 14:35 9,9 C 10,8 C 56 % 1031,6 hPa 0,0 mm 8,5 km/h (2 Bft) W-SW 247 1,5 C 12,2 km/h (2 Bft)
23.12.2015 14:40 9,8 C 10,2 C 56 % 1031,6 hPa 0,0 mm 8,8 km/h (2 Bft) W-SW 247 1,4 C 11,1 km/h (2 Bft)
23.12.2015 14:45 9,7 C 10,1 C 56 % 1031,6 hPa 0,0 mm 8,0 km/h (2 Bft) NW 315 1,4 C 2,6 km/h (1 Bft)
23.12.2015 14:50 9,4 C 10,8 C 56 % 1031,6 hPa 0,0 mm 6,5 km/h (2 Bft) W-SW 247 1,1 C 7,3 km/h (2 Bft)
23.12.2015 14:55 9,4 C 10,9 C 56 % 1031,5 hPa 0,0 mm 6,5 km/h (2 Bft) W-SW 247 1,1 C 6,7 km/h (2 Bft)
23.12.2015 15:00 9,1 C 11,8 C 57 % 1031,5 hPa 0,0 mm 5,4 km/h (1 Bft) W-SW 247 1,0 C 10,6 km/h (2 Bft)
23.12.2015 15:05 9,0 C 11,7 C 57 % 1031,5 hPa 0,0 mm 4,9 km/h (1 Bft) NW 315 0,9 C 6,0 km/h (2 Bft)
23.12.2015 15:11 8,8 C 10,6 C 57 % 1031,5 hPa 0,0 mm 5,7 km/h (1 Bft) N 0 0,8 C 9,8 km/h (2 Bft)
23.12.2015 15:15 9,0 C 10,2 C 57 % 1031,6 hPa 0,0 mm 5,2 km/h (1 Bft) N 0 0,9 C 2,6 km/h (1 Bft)
23.12.2015 15:20 8,8 C 9,5 C 57 % 1031,6 hPa 0,0 mm 4,1 km/h (1 Bft) W 270 0,8 C 10,1 km/h (2 Bft)
23.12.2015 15:25 8,8 C 9,3 C 57 % 1031,6 hPa 0,0 mm 3,4 km/h (1 Bft) W-NW 292 0,8 C 7,0 km/h (2 Bft)
23.12.2015 15:30 8,9 C 9,1 C 57 % 1031,6 hPa 0,0 mm 5,2 km/h (1 Bft) W-SW 247 0,9 C 8,0 km/h (2 Bft)
23.12.2015 15:35 8,8 C 9,1 C 57 % 1031,8 hPa 0,0 mm 4,9 km/h (1 Bft) W-SW 247 0,8 C 2,8 km/h (1 Bft)
23.12.2015 15:40 8,9 C 8,9 C 58 % 1031,8 hPa 0,0 mm 3,9 km/h (1 Bft) W-SW 247 1,1 C 6,2 km/h (2 Bft)
23.12.2015 15:45 9,0 C 9,0 C 57 % 1031,8 hPa 0,0 mm 4,4 km/h (1 Bft) W-SW 247 0,9 C 6,0 km/h (2 Bft)
23.12.2015 15:50 9,1 C 9,0 C 57 % 1031,8 hPa 0,0 mm 4,9 km/h (1 Bft) W-SW 247 1,0 C 0,0 km/h (0 Bft)
23.12.2015 15:55 8,7 C 8,8 C 57 % 1032,0 hPa 0,0 mm 4,1 km/h (1 Bft) W-SW 247 0,7 C 3,6 km/h (1 Bft)
23.12.2015 16:00 8,4 C 8,5 C 58 % 1032,0 hPa 0,0 mm 3,1 km/h (1 Bft) W 270 0,6 C 6,0 km/h (2 Bft)
23.12.2015 16:05 8,3 C 8,4 C 58 % 1032,0 hPa 0,0 mm 3,4 km/h (1 Bft) W-SW 247 0,5 C 4,4 km/h (1 Bft)
23.12.2015 16:10 8,1 C 8,2 C 58 % 1032,0 hPa 0,0 mm 3,6 km/h (1 Bft) W-SW 247 0,3 C 6,2 km/h (2 Bft)
23.12.2015 16:15 8,0 C 8,1 C 59 % 1032,2 hPa 0,0 mm 3,1 km/h (1 Bft) W-SW 247 0,5 C 4,1 km/h (1 Bft)
23.12.2015 16:20 7,8 C 7,9 C 59 % 1032,2 hPa 0,0 mm 2,3 km/h (1 Bft) W 270 0,3 C 3,4 km/h (1 Bft)
23.12.2015 16:25 7,9 C 7,9 C 59 % 1032,2 hPa 0,0 mm 3,1 km/h (1 Bft) SW 225 0,4 C 5,2 km/h (1 Bft)
23.12.2015 16:30 8,0 C 7,9 C 59 % 1032,2 hPa 0,0 mm 4,7 km/h (1 Bft) W-SW 247 0,5 C 5,7 km/h (1 Bft)
23.12.2015 16:35 7,9 C 7,9 C 59 % 1032,2 hPa 0,0 mm 4,9 km/h (1 Bft) W-SW 247 0,4 C 4,9 km/h (1 Bft)
23.12.2015 16:40 8,1 C 8,0 C 59 % 1032,2 hPa 0,0 mm 5,2 km/h (1 Bft) SW 225 0,6 C 8,3 km/h (2 Bft)
23.12.2015 16:45 8,0 C 8,0 C 59 % 1032,2 hPa 0,0 mm 4,9 km/h (1 Bft) S 180 0,5 C 3,9 km/h (1 Bft)
23.12.2015 16:50 7,5 C 7,7 C 60 % 1032,2 hPa 0,0 mm 3,9 km/h (1 Bft) S-SW 202 0,2 C 5,4 km/h (1 Bft)
23.12.2015 16:55 7,3 C 7,5 C 60 % 1032,2 hPa 0,0 mm 2,8 km/h (1 Bft) S 180 0,1 C 6,5 km/h (2 Bft)
23.12.2015 17:00 7,1 C 7,2 C 61 % 1032,2 hPa 0,0 mm 2,6 km/h (1 Bft) N 360 0,1 C 3,9 km/h (1 Bft)
23.12.2015 17:05 7,1 C 7,2 C 61 % 1032,2 hPa 0,0 mm 2,6 km/h (1 Bft) S-SO 157 0,1 C 3,6 km/h (1 Bft)
23.12.2015 17:10 7,1 C 7,1 C 61 % 1032,2 hPa 0,0 mm 1,6 km/h (1 Bft) S-SO 157 0,1 C 2,6 km/h (1 Bft)
23.12.2015 17:15 7,1 C 7,1 C 62 % 1032,2 hPa 0,0 mm 1,0 km/h (0 Bft) S 180 0,3 C 3,9 km/h (1 Bft)
23.12.2015 17:20 6,7 C 6,8 C 63 % 1032,2 hPa 0,0 mm 2,1 km/h (1 Bft) SO 135 0,2 C 3,1 km/h (1 Bft)
23.12.2015 17:25 6,8 C 6,8 C 63 % 1032,2 hPa 0,0 mm 1,8 km/h (1 Bft) SO 135 0,3 C 0,0 km/h (0 Bft)
23.12.2015 17:30 6,7 C 6,6 C 63 % 1032,2 hPa 0,0 mm 0,5 km/h (0 Bft) S-SO 157 0,2 C 0,0 km/h (0 Bft)
23.12.2015 17:35 6,6 C 6,5 C 63 % 1032,0 hPa 0,0 mm 0,5 km/h (0 Bft) S 180 0,1 C 0,0 km/h (0 Bft)
23.12.2015 17:40 6,4 C 6,3 C 63 % 1032,0 hPa 0,0 mm 1,0 km/h (0 Bft) SW 225 -0,1 C 3,4 km/h (1 Bft)
23.12.2015 17:45 6,2 C 6,2 C 64 % 1032,0 hPa 0,0 mm 1,3 km/h (1 Bft) S-SO 157 -0,1 C 0,0 km/h (0 Bft)
23.12.2015 17:50 6,1 C 6,1 C 65 % 1032,0 hPa 0,0 mm 1,0 km/h (0 Bft) SO 135 0,0 C 0,0 km/h (0 Bft)
23.12.2015 17:55 6,0 C 5,9 C 65 % 1032,0 hPa 0,0 mm 0,3 km/h (0 Bft) SO 135 -0,1 C 0,0 km/h (0 Bft)
23.12.2015 18:00 5,8 C 5,7 C 66 % 1032,0 hPa 0,0 mm 0,0 km/h (0 Bft) SO 135 -0,0 C 0,0 km/h (0 Bft)
23.12.2015 18:05 5,5 C 5,5 C 66 % 1032,0 hPa 0,0 mm 0,0 km/h (0 Bft) NW 315 -0,3 C 0,0 km/h (0 Bft)
23.12.2015 18:10 5,7 C 5,6 C 68 % 1032,0 hPa 0,0 mm 0,0 km/h (0 Bft) O-SO 112 0,3 C 0,0 km/h (0 Bft)
23.12.2015 18:15 5,5 C 5,5 C 67 % 1032,2 hPa 0,0 mm 0,0 km/h (0 Bft) O-SO 112 -0,1 C 0,0 km/h (0 Bft)
23.12.2015 18:20 5,4 C 5,4 C 68 % 1032,2 hPa 0,0 mm 0,0 km/h (0 Bft) O-SO 112 -0,0 C 0,0 km/h (0 Bft)
23.12.2015 18:25 5,5 C 5,4 C 68 % 1032,2 hPa 0,0 mm 0,5 km/h (0 Bft) S-SO 157 0,1 C 0,0 km/h (0 Bft)
23.12.2015 18:30 5,7 C 5,6 C 68 % 1032,2 hPa 0,0 mm 0,5 km/h (0 Bft) S-SO 157 0,3 C 0,0 km/h (0 Bft)
23.12.2015 18:35 5,9 C 5,7 C 67 % 1032,1 hPa 0,0 mm 0,0 km/h (0 Bft) S-SO 157 0,3 C 0,0 km/h (0 Bft)
23.12.2015 18:40 5,9 C 5,8 C 67 % 1032,1 hPa 0,0 mm 0,0 km/h (0 Bft) S-SO 157 0,3 C 0,0 km/h (0 Bft)
23.12.2015 18:45 5,5 C 5,5 C 67 % 1032,1 hPa 0,0 mm 0,0 km/h (0 Bft) SO 135 -0,1 C 0,0 km/h (0 Bft)
23.12.2015 18:50 4,8 C 5,1 C 67 % 1032,1 hPa 0,0 mm 0,0 km/h (0 Bft) S-SO 157 -0,8 C 0,0 km/h (0 Bft)
23.12.2015 18:55 4,5 C 4,8 C 68 % 1032,3 hPa 0,0 mm 0,0 km/h (0 Bft) SO 135 -0,9 C 0,0 km/h (0 Bft)
23.12.2015 19:00 4,2 C 4,4 C 68 % 1032,3 hPa 0,0 mm 0,0 km/h (0 Bft) SO 135 -1,2 C 0,0 km/h (0 Bft)
23.12.2015 19:05 3,9 C 4,0 C 69 % 1032,3 hPa 0,0 mm 0,0 km/h (0 Bft) SO 135 -1,3 C 0,0 km/h (0 Bft)
23.12.2015 19:10 4,0 C 3,9 C 70 % 1032,3 hPa 0,0 mm 0,0 km/h (0 Bft) SO 135 -1,0 C 0,0 km/h (0 Bft)
23.12.2015 19:15 3,5 C 3,5 C 70 % 1032,0 hPa 0,0 mm 0,0 km/h (0 Bft) SO 135 -1,4 C 0,0 km/h (0 Bft)
23.12.2015 19:20 3,4 C 3,3 C 70 % 1032,0 hPa 0,0 mm 0,0 km/h (0 Bft) SO 135 -1,5 C 0,0 km/h (0 Bft)
23.12.2015 19:23 3,1 C 3,0 C 71 % 1032,0 hPa 0,0 mm 0,0 km/h (0 Bft) SO 135 -1,6 C 0,0 km/h (0 Bft)
23.12.2015 19:25 3,1 C 3,0 C 71 % 1032,0 hPa 0,0 mm 0,0 km/h (0 Bft) SO 135 -1,6 C 0,0 km/h (0 Bft)
23.12.2015 19:30 2,9 C 2,7 C 73 % 1032,0 hPa 0,0 mm 0,0 km/h (0 Bft) SO 135 -1,5 C 0,0 km/h (0 Bft)
23.12.2015 19:35 3,0 C 2,7 C 72 % 1032,2 hPa 0,0 mm 0,0 km/h (0 Bft) SO 135 -1,5 C 0,0 km/h (0 Bft)
23.12.2015 19:41 3,1 C 2,7 C 73 % 1032,2 hPa 0,0 mm 0,0 km/h (0 Bft) SO 135 -1,3 C 0,0 km/h (0 Bft)
23.12.2015 19:45 3,3 C 2,9 C 74 % 1032,2 hPa 0,0 mm 0,0 km/h (0 Bft) O 90 -0,9 C 0,0 km/h (0 Bft)
23.12.2015 19:50 3,2 C 2,9 C 74 % 1032,2 hPa 0,0 mm 0,3 km/h (0 Bft) NW 315 -1,0 C 0,0 km/h (0 Bft)
23.12.2015 19:55 3,1 C 2,9 C 74 % 1032,0 hPa 0,0 mm 0,3 km/h (0 Bft) NW 315 -1,1 C 0,0 km/h (0 Bft)
23.12.2015 20:00 3,2 C 3,0 C 74 % 1032,0 hPa 0,0 mm 0,0 km/h (0 Bft) N-NW 337 -1,0 C 0,0 km/h (0 Bft)
23.12.2015 20:05 3,1 C 3,0 C 74 % 1032,0 hPa 0,0 mm 0,5 km/h (0 Bft) N-NO 22 -1,1 C 0,0 km/h (0 Bft)
23.12.2015 20:10 3,1 C 3,1 C 75 % 1032,0 hPa 0,0 mm 0,5 km/h (0 Bft) SO 135 -0,9 C 0,0 km/h (0 Bft)
23.12.2015 20:15 3,1 C 3,2 C 75 % 1032,0 hPa 0,0 mm 0,0 km/h (0 Bft) NO 45 -0,9 C 0,0 km/h (0 Bft)
23.12.2015 20:20 3,3 C 3,3 C 75 % 1032,0 hPa 0,0 mm 0,0 km/h (0 Bft) SO 135 -0,7 C 0,0 km/h (0 Bft)
23.12.2015 20:26 3,3 C 3,3 C 75 % 1032,0 hPa 0,0 mm 0,0 km/h (0 Bft) SO 135 -0,7 C 0,0 km/h (0 Bft)
23.12.2015 20:30 3,4 C 3,4 C 75 % 1032,0 hPa 0,0 mm 0,3 km/h (0 Bft) S 180 -0,6 C 0,0 km/h (0 Bft)
23.12.2015 20:35 3,7 C 3,7 C 75 % 1032,2 hPa 0,0 mm 0,5 km/h (0 Bft) O-SO 112 -0,3 C 0,0 km/h (0 Bft)
23.12.2015 20:40 3,3 C 3,7 C 75 % 1032,2 hPa 0,0 mm 0,3 km/h (0 Bft) N-NO 22 -0,7 C 0,0 km/h (0 Bft)
23.12.2015 20:45 3,4 C 3,6 C 75 % 1032,2 hPa 0,0 mm 0,0 km/h (0 Bft) N-NO 22 -0,6 C 0,0 km/h (0 Bft)
23.12.2015 20:50 3,2 C 3,6 C 75 % 1032,2 hPa 0,0 mm 0,0 km/h (0 Bft) O-NO 67 -0,8 C 0,0 km/h (0 Bft)
23.12.2015 20:55 3,2 C 3,5 C 75 % 1032,0 hPa 0,0 mm 0,0 km/h (0 Bft) N-NO 22 -0,8 C 0,0 km/h (0 Bft)
23.12.2015 21:00 3,2 C 3,5 C 75 % 1032,0 hPa 0,0 mm 0,0 km/h (0 Bft) S 180 -0,8 C 0,0 km/h (0 Bft)
23.12.2015 21:05 3,6 C 3,7 C 73 % 1032,0 hPa 0,0 mm 0,0 km/h (0 Bft) S 180 -0,8 C 0,0 km/h (0 Bft)
23.12.2015 21:10 4,6 C 4,5 C 76 % 1032,0 hPa 0,0 mm 2,1 km/h (1 Bft) S 180 0,7 C 3,9 km/h (1 Bft)
23.12.2015 21:15 4,8 C 4,7 C 76 % 1032,0 hPa 0,0 mm 2,3 km/h (1 Bft) S 180 0,9 C 0,0 km/h (0 Bft)
23.12.2015 21:20 4,3 C 4,7 C 75 % 1032,0 hPa 0,0 mm 0,8 km/h (0 Bft) S 180 0,3 C 0,0 km/h (0 Bft)
23.12.2015 21:25 4,7 C 4,8 C 75 % 1032,0 hPa 0,0 mm 0,8 km/h (0 Bft) O-SO 112 0,7 C 0,0 km/h (0 Bft)
23.12.2015 21:30 4,0 C 4,5 C 74 % 1032,0 hPa 0,0 mm 0,5 km/h (0 Bft) O 90 -0,2 C 0,0 km/h (0 Bft)
23.12.2015 21:35 3,9 C 4,2 C 74 % 1032,0 hPa 0,0 mm 0,0 km/h (0 Bft) SO 135 -0,3 C 0,0 km/h (0 Bft)
23.12.2015 21:40 4,2 C 4,1 C 75 % 1032,0 hPa 0,0 mm 0,0 km/h (0 Bft) NO 45 0,2 C 0,0 km/h (0 Bft)
23.12.2015 21:45 4,1 C 4,0 C 75 % 1032,0 hPa 0,0 mm 0,0 km/h (0 Bft) S-SO 157 0,1 C 0,0 km/h (0 Bft)
23.12.2015 21:50 4,3 C 4,1 C 76 % 1032,0 hPa 0,0 mm 0,0 km/h (0 Bft) O-SO 112 0,5 C 0,0 km/h (0 Bft)
23.12.2015 21:55 3,9 C 3,8 C 76 % 1032,0 hPa 0,0 mm 0,0 km/h (0 Bft) S-SO 157 0,1 C 0,0 km/h (0 Bft)
23.12.2015 22:00 3,8 C 3,8 C 76 % 1032,0 hPa 0,0 mm 0,5 km/h (0 Bft) S 180 -0,0 C 0,0 km/h (0 Bft)
23.12.2015 22:05 4,4 C 4,3 C 74 % 1032,0 hPa 0,0 mm 0,8 km/h (0 Bft) SO 135 0,2 C 2,8 km/h (1 Bft)
23.12.2015 22:10 4,2 C 4,2 C 75 % 1032,0 hPa 0,0 mm 0,5 km/h (0 Bft) N-NO 22 0,2 C 0,0 km/h (0 Bft)
23.12.2015 22:15 3,8 C 4,1 C 75 % 1031,8 hPa 0,0 mm 0,3 km/h (0 Bft) S-SO 157 -0,2 C 2,8 km/h (1 Bft)
23.12.2015 22:20 4,2 C 4,2 C 76 % 1031,8 hPa 0,0 mm 0,0 km/h (0 Bft) SO 135 0,4 C 0,0 km/h (0 Bft)
23.12.2015 22:25 3,7 C 3,9 C 75 % 1031,8 hPa 0,0 mm 0,0 km/h (0 Bft) O-SO 112 -0,3 C 0,0 km/h (0 Bft)
23.12.2015 22:30 3,3 C 3,5 C 75 % 1031,8 hPa 0,0 mm 0,0 km/h (0 Bft) O-SO 112 -0,7 C 0,0 km/h (0 Bft)
23.12.2015 22:35 3,2 C 3,2 C 75 % 1031,7 hPa 0,0 mm 0,0 km/h (0 Bft) O-SO 112 -0,8 C 0,0 km/h (0 Bft)
23.12.2015 22:40 3,1 C 3,1 C 76 % 1031,7 hPa 0,0 mm 0,0 km/h (0 Bft) O-SO 112 -0,7 C 0,0 km/h (0 Bft)
23.12.2015 22:45 3,3 C 3,1 C 76 % 1031,7 hPa 0,0 mm 0,0 km/h (0 Bft) SO 135 -0,5 C 0,0 km/h (0 Bft)
23.12.2015 22:50 3,7 C 3,3 C 77 % 1031,7 hPa 0,0 mm 0,0 km/h (0 Bft) O-SO 112 0,1 C 0,0 km/h (0 Bft)
23.12.2015 22:55 3,3 C 3,0 C 76 % 1031,5 hPa 0,0 mm 0,0 km/h (0 Bft) SO 135 -0,5 C 0,0 km/h (0 Bft)
23.12.2015 23:00 3,2 C 3,0 C 75 % 1031,5 hPa 0,0 mm 0,0 km/h (0 Bft) O-SO 112 -0,8 C 0,0 km/h (0 Bft)
23.12.2015 23:05 2,7 C 2,5 C 77 % 1031,5 hPa 0,0 mm 0,0 km/h (0 Bft) O-NO 67 -0,9 C 0,0 km/h (0 Bft)
23.12.2015 23:10 2,2 C 2,0 C 76 % 1031,5 hPa 0,0 mm 0,0 km/h (0 Bft) O-NO 67 -1,6 C 0,0 km/h (0 Bft)
23.12.2015 23:15 2,0 C 1,7 C 76 % 1031,4 hPa 0,0 mm 0,0 km/h (0 Bft) O-NO 67 -1,8 C 0,0 km/h (0 Bft)
23.12.2015 23:20 1,9 C 1,5 C 77 % 1031,4 hPa 0,0 mm 0,0 km/h (0 Bft) O-NO 67 -1,7 C 0,0 km/h (0 Bft)
23.12.2015 23:25 1,7 C 1,3 C 77 % 1031,4 hPa 0,0 mm 0,0 km/h (0 Bft) O-NO 67 -1,9 C 0,0 km/h (0 Bft)
23.12.2015 23:30 1,4 C 1,0 C 78 % 1031,4 hPa 0,0 mm 0,0 km/h (0 Bft) O-NO 67 -2,0 C 0,0 km/h (0 Bft)
23.12.2015 23:35 1,5 C 1,0 C 78 % 1031,2 hPa 0,0 mm 0,0 km/h (0 Bft) O-NO 67 -1,9 C 0,0 km/h (0 Bft)
23.12.2015 23:40 1,2 C 0,7 C 78 % 1031,2 hPa 0,0 mm 0,0 km/h (0 Bft) O-NO 67 -2,2 C 0,0 km/h (0 Bft)
23.12.2015 23:45 1,4 C 0,8 C 79 % 1031,2 hPa 0,0 mm 0,0 km/h (0 Bft) O-NO 67 -1,8 C 0,0 km/h (0 Bft)
23.12.2015 23:50 1,0 C 0,5 C 79 % 1031,2 hPa 0,0 mm 0,0 km/h (0 Bft) O-NO 67 -2,2 C 0,0 km/h (0 Bft)
23.12.2015 23:55 0,7 C 0,3 C 79 % 1031,0 hPa 0,0 mm 0,0 km/h (0 Bft) O-NO 67 -2,5 C 0,0 km/h (0 Bft)
_ Min-Zeit 03:05 03:05 14:30 03:50 - 23:55 - - 08:35 23:55
Minimum _ -0,9 C -1,1 C 55 % 1029,2 hPa - 0,0 km/h (0 Bft) - - -4,2 C 0,0 km/h (0 Bft)
_ Max-Zeit 14:00 14:05 02:56 11:50 23:55 14:20 - - 13:55 13:10
Maximum _ 10,9 C 13,8 C 82 % 1032,8 hPa 0,0 mm 15,3 km/h
W-NW (3 Bft)
- - 2,3 C 34,4 km/h
W (5 Bft)
Durchschnitt _ 4,1 C 4,2 C 70 % 1031,2 hPa #0,0 mm 2,7 km/h (1 Bft) W-SW - -1,1 C 3,7 km/h (1 Bft)